When you browse on this site, cookies collect data to enhance your experience and personalize the content and advertising you see.
Visit our Privacy Policy to learn more. By continuing to use the site, you agree to this use of cookies and data.

Previsão horária em Rodovoe

Hoje, 11 Agosto, Terça-feira

Tempo Temperatura Precipitação Vento Pressão Humidade
00:00 +13°C° 0 mm 2 m/s 757 mmHg 77%
01:00 +13°C° 0 mm 2 m/s 757 mmHg 79%
02:00 +12°C° 0 mm 2 m/s 757 mmHg 81%
03:00 +12°C° 0 mm 2 m/s 757 mmHg 84%
04:00 +12°C° 0 mm 2 m/s 758 mmHg 87%
05:00 +12°C° 0 mm 2 m/s 758 mmHg 91%
06:00 +13°C° 0 mm 2 m/s 758 mmHg 84%
07:00 +14°C° 0 mm 3 m/s 758 mmHg 77%
08:00 +17°C° 0 mm 3 m/s 758 mmHg 70%
09:00 +18°C° 0 mm 4 m/s 758 mmHg 67%
10:00 +19°C° 0 mm 4 m/s 758 mmHg 64%
11:00 +19°C° 0 mm 4 m/s 758 mmHg 62%
12:00 +20°C° 0.1 mm 4 m/s 758 mmHg 60%
13:00 +20°C° 0.1 mm 4 m/s 758 mmHg 58%
14:00 +20°C° 0.1 mm 5 m/s 758 mmHg 56%
15:00 +20°C° 0.1 mm 5 m/s 758 mmHg 58%
16:00 +19°C° 0.1 mm 5 m/s 758 mmHg 59%
17:00 +19°C° 0.1 mm 5 m/s 758 mmHg 60%
18:00 +17°C° 0 mm 4 m/s 758 mmHg 67%
19:00 +16°C° 0 mm 3 m/s 758 mmHg 73%
20:00 +13°C° 0 mm 3 m/s 758 mmHg 79%
21:00 +13°C° 0 mm 2 m/s 759 mmHg 81%
22:00 +12°C° 0 mm 2 m/s 759 mmHg 84%
23:00 +12°C° 0 mm 2 m/s 759 mmHg 87%

Amanhã, 12 Agosto, Quarta-feira

Tempo Temperatura Precipitação Vento Pressão Humidade
00:00 +10°C° 0 mm 2 m/s 759 mmHg 88%
01:00 +10°C° 0 mm 2 m/s 759 mmHg 89%
02:00 +9°C° 0 mm 2 m/s 759 mmHg 91%
03:00 +9°C° 0 mm 2 m/s 759 mmHg 91%
04:00 +9°C° 0 mm 2 m/s 759 mmHg 92%
05:00 +9°C° 0 mm 2 m/s 759 mmHg 93%
06:00 +12°C° 0 mm 2 m/s 759 mmHg 84%
07:00 +12°C° 0 mm 3 m/s 759 mmHg 74%
08:00 +14°C° 0 mm 4 m/s 759 mmHg 65%
09:00 +15°C° 0 mm 4 m/s 759 mmHg 60%
10:00 +17°C° 0 mm 4 m/s 759 mmHg 55%
11:00 +18°C° 0 mm 4 m/s 759 mmHg 50%
12:00 +18°C° 0 mm 3 m/s 759 mmHg 51%
13:00 +18°C° 0 mm 3 m/s 759 mmHg 51%
14:00 +19°C° 0 mm 3 m/s 759 mmHg 52%
15:00 +19°C° 0 mm 3 m/s 759 mmHg 54%
16:00 +18°C° 0 mm 3 m/s 759 mmHg 56%
17:00 +18°C° 0 mm 2 m/s 758 mmHg 58%
18:00 +17°C° 0 mm 2 m/s 758 mmHg 64%
19:00 +15°C° 0 mm 2 m/s 758 mmHg 71%
20:00 +14°C° 0 mm 1 m/s 758 mmHg 77%
21:00 +13°C° 0 mm 1 m/s 758 mmHg 80%
22:00 +12°C° 0 mm 1 m/s 758 mmHg 82%
23:00 +12°C° 0 mm 1 m/s 758 mmHg 85%

Depois de amanhã, 13 Agosto, Quinta-feira

Tempo Temperatura Precipitação Vento Pressão Humidade
00:00 +11°C° 0 mm 1 m/s 758 mmHg 86%
01:00 +11°C° 0 mm 1 m/s 758 mmHg 88%
02:00 +11°C° 0 mm 1 m/s 758 mmHg 89%
03:00 +11°C° 0 mm 1 m/s 758 mmHg 88%
04:00 +12°C° 0 mm 1 m/s 758 mmHg 86%
05:00 +12°C° 0 mm 1 m/s 758 mmHg 85%
06:00 +13°C° 0 mm 1 m/s 757 mmHg 83%
07:00 +12°C° 0 mm 0 m/s 757 mmHg 82%
08:00 +13°C° 0 mm 0 m/s 757 mmHg 81%
09:00 +14°C° 0 mm 0 m/s 757 mmHg 75%
10:00 +16°C° 0 mm 0 m/s 757 mmHg 69%
11:00 +17°C° 0 mm 0 m/s 757 mmHg 63%
12:00 +19°C° 0 mm 1 m/s 757 mmHg 65%
13:00 +19°C° 0 mm 1 m/s 757 mmHg 67%
14:00 +19°C° 0 mm 1 m/s 756 mmHg 69%
15:00 +18°C° 0 mm 1 m/s 756 mmHg 72%
16:00 +18°C° 0 mm 1 m/s 756 mmHg 75%
17:00 +18°C° 0 mm 1 m/s 756 mmHg 78%
18:00 +16°C° 0 mm 1 m/s 756 mmHg 81%
19:00 +15°C° 0 mm 1 m/s 756 mmHg 84%
20:00 +15°C° 0 mm 1 m/s 756 mmHg 87%
21:00 +15°C° 0 mm 1 m/s 756 mmHg 87%
22:00 +14°C° 0 mm 1 m/s 756 mmHg 87%
23:00 +14°C° 0 mm 1 m/s 756 mmHg 88%

14 Agosto, Sexta-feira

Tempo Temperatura Precipitação Vento Pressão Humidade
00:00 +14°C° 0 mm 1 m/s 756 mmHg 88%
01:00 +14°C° 0 mm 1 m/s 756 mmHg 89%
02:00 +14°C° 0 mm 2 m/s 756 mmHg 90%
03:00 +13°C° 0 mm 2 m/s 756 mmHg 92%
04:00 +13°C° 0 mm 2 m/s 755 mmHg 93%
05:00 +13°C° 0 mm 1 m/s 755 mmHg 95%
06:00 +14°C° 0 mm 1 m/s 755 mmHg 90%
07:00 +16°C° 0 mm 1 m/s 755 mmHg 86%
08:00 +18°C° 0 mm 1 m/s 755 mmHg 81%
09:00 +18°C° 0.1 mm 2 m/s 755 mmHg 76%
10:00 +20°C° 0.1 mm 2 m/s 755 mmHg 70%
11:00 +21°C° 0.1 mm 2 m/s 755 mmHg 64%
12:00 +23°C° 0.3 mm 2 m/s 755 mmHg 64%
13:00 +23°C° 0.3 mm 2 m/s 754 mmHg 65%
14:00 +22°C° 0.3 mm 3 m/s 754 mmHg 65%
15:00 +23°C° 0.5 mm 2 m/s 754 mmHg 70%
16:00 +23°C° 0.5 mm 2 m/s 754 mmHg 75%
17:00 +21°C° 0.5 mm 2 m/s 754 mmHg 80%
18:00 +20°C° 0.2 mm 2 m/s 754 mmHg 82%
19:00 +19°C° 0.2 mm 2 m/s 754 mmHg 85%
20:00 +17°C° 0.2 mm 2 m/s 754 mmHg 87%
21:00 +17°C° 0 mm 2 m/s 754 mmHg 88%
22:00 +16°C° 0 mm 2 m/s 754 mmHg 89%
23:00 +15°C° 0 mm 2 m/s 753 mmHg 90%

15 Agosto, Sábado

Tempo Temperatura Precipitação Vento Pressão Humidade
00:00 +15°C° 0.1 mm 2 m/s 753 mmHg 91%
01:00 +15°C° 0.1 mm 2 m/s 753 mmHg 92%
02:00 +14°C° 0.1 mm 2 m/s 753 mmHg 93%
03:00 +14°C° 0.1 mm 2 m/s 753 mmHg 94%
04:00 +14°C° 0.1 mm 2 m/s 753 mmHg 94%
05:00 +14°C° 0.1 mm 2 m/s 753 mmHg 95%
06:00 +15°C° 0.2 mm 2 m/s 753 mmHg 92%
07:00 +17°C° 0.2 mm 2 m/s 753 mmHg 88%
08:00 +18°C° 0.2 mm 2 m/s 753 mmHg 85%
09:00 +20°C° 0 mm 3 m/s 753 mmHg 76%
10:00 +21°C° 0 mm 3 m/s 752 mmHg 67%
11:00 +24°C° 0 mm 3 m/s 752 mmHg 59%
12:00 +24°C° 0.8 mm 3 m/s 752 mmHg 63%
13:00 +23°C° 0.8 mm 4 m/s 752 mmHg 66%
14:00 +23°C° 0.8 mm 4 m/s 752 mmHg 70%
15:00 +22°C° 1.5 mm 3 m/s 752 mmHg 74%
16:00 +22°C° 1.5 mm 3 m/s 752 mmHg 78%
17:00 +21°C° 1.5 mm 2 m/s 752 mmHg 82%
18:00 +20°C° 0.1 mm 2 m/s 752 mmHg 85%
19:00 +18°C° 0.1 mm 2 m/s 752 mmHg 87%
20:00 +17°C° 0.1 mm 2 m/s 752 mmHg 89%
21:00 +16°C° 0 mm 1 m/s 753 mmHg 91%
22:00 +16°C° 0 mm 1 m/s 753 mmHg 93%
23:00 +15°C° 0 mm 1 m/s 753 mmHg 95%

16 Agosto, Domingo

Tempo Temperatura Precipitação Vento Pressão Humidade
00:00 +15°C° 0 mm 1 m/s 753 mmHg 95%
01:00 +14°C° 0 mm 1 m/s 754 mmHg 96%
02:00 +14°C° 0 mm 1 m/s 754 mmHg 97%
03:00 +14°C° 0 mm 1 m/s 754 mmHg 97%
04:00 +13°C° 0 mm 2 m/s 754 mmHg 97%
05:00 +13°C° 0 mm 2 m/s 754 mmHg 97%
06:00 +14°C° 0 mm 2 m/s 755 mmHg 95%
07:00 +15°C° 0 mm 2 m/s 755 mmHg 93%
08:00 +16°C° 0 mm 3 m/s 755 mmHg 91%
09:00 +17°C° 0 mm 3 m/s 755 mmHg 86%
10:00 +18°C° 0 mm 3 m/s 756 mmHg 82%
11:00 +19°C° 0 mm 3 m/s 756 mmHg 78%
12:00 +20°C° 0 mm 3 m/s 756 mmHg 71%
13:00 +21°C° 0 mm 3 m/s 756 mmHg 65%
14:00 +22°C° 0 mm 3 m/s 756 mmHg 59%
15:00 +22°C° 0 mm 3 m/s 756 mmHg 59%
16:00 +22°C° 0 mm 3 m/s 756 mmHg 59%
17:00 +22°C° 0 mm 3 m/s 756 mmHg 59%
18:00 +20°C° 0 mm 3 m/s 756 mmHg 65%
19:00 +18°C° 0 mm 3 m/s 757 mmHg 71%
20:00 +16°C° 0 mm 3 m/s 757 mmHg 77%
21:00 +15°C° 0 mm 2 m/s 757 mmHg 79%
22:00 +14°C° 0 mm 2 m/s 757 mmHg 81%
23:00 +13°C° 0 mm 2 m/s 758 mmHg 83%
Mostrar mais